Location: Newark
(44.2003°N, 3.2583°E)
Time: 06:41:32
(UTC+00:00)

Envisat - Pass Details

Date: 20 September 2019
Orbit: 764 x 766 km, 98.1° (Epoch: 15 October)

Event Time Altitude Azimuth Distance (km) Brightness Sun altitude
Rises 19:23:21 0° 216° (SW) 3,221 6.5 -17.4°
Reaches altitude 10° 19:26:55 10° 243° (WSW) 2,301 6.1 -18.0°
Maximum altitude 19:29:20 13° 272° (W) 2,076 6.3 -18.4°
Drops below altitude 10° 19:31:46 10° 301° (WNW) 2,309 6.7 -18.8°
Sets 19:35:24 0° 327° (NNW) 3,242 7.1 -19.4°
